Weather History for Middletown, OH

Change the Weather History Date:

Friday, November 2, 2012

  Actual Average (KDAY) Record (KDAY)
Temperature  
Mean Temperature 42 °F 48 °F  
Max Temperature 52 °F 58 °F 77 °F (1961)
Min Temperature 32 °F 39 °F 20 °F (1954)
Degree Days  
Heating Degree Days 23 17  
Month to date heating degree days 33  
Since 1 July heating degree days 480  
Cooling Degree Days 0 0  
Month to date cooling degree days 0  
Year to date cooling degree days 891  
Moisture  
Dew Point 34 °F    
Average Humidity 73    
Maximum Humidity 99    
Minimum Humidity 52    
Precipitation  
Precipitation 0.00 in 0.11 in 2.20 in (1928)
Month to date precipitation 0.22  
Year to date precipitation 34.76  
Snow  
Snow 0.00 in 0.00 in 6.50 in (1966)
Month to date snowfall 0.0  
Since 1 July snowfall 0.4  
Since 1 September snowfall 0.4  
Snow Depth -    
Sea Level Pressure  
Sea Level Pressure 29.98 in    
Wind  
Wind Speed 5 mph (NNW)    
Max Wind Speed 21 mph    
Max Gust Speed 28 mph    
Visibility 10 miles    
Events      
T = Trace of Precipitation, MM = Missing Value Source: NWS Daily Summary

Daily Weather History Graph

Daily Weather History Graph

Search for Another Location

Airport:

Trip Planner

Search our weather history database for the weather conditions in past years. The results will help you decide how hot, cold, wet, or windy it might be!

Date:

Astronomy

Nov. 02, 2012 Rise Set
Actual Time 8:07 AM EDT 6:34 PM EDT
Civil Twilight 7:39 AM EDT 7:02 PM EDT
Nautical Twilight 7:07 AM EDT 7:34 PM EDT
Astronomical Twilight 6:36 AM EDT 8:05 PM EDT
Moon 9:21 PM EDT (11/2) 11:26 AM EDT (11/2)
Length of Visible Light 11h 22m
Length of Day
10h 26m
Waning Gibbous, 87% of the Moon is Illuminated
Nov 2
Waning Gibbous
Nov 6
Last Quarter
Nov 13
New
Nov 20
First Quarter
Nov 28
Full

Hourly Weather History & Observations

Time (EDT) Temp. Windchill Dew Point Humidity Pressure Visibility Wind Dir Wind Speed Gust Speed Precip Events Conditions
12:15 AM 41.4 °F 37.6 °F 35.1 °F 78% 29.87 in 10.0 mi West 5.8 mph - N/A   Overcast
12:35 AM 41.7 °F 38.0 °F 34.2 °F 75% 29.87 in 10.0 mi West 5.8 mph - N/A   Overcast
12:55 AM 42.8 °F 40.1 °F 34.5 °F 73% 29.86 in 10.0 mi West 4.6 mph - N/A   Overcast
1:15 AM 41.4 °F 39.4 °F 34.9 °F 78% 29.86 in 10.0 mi WNW 3.5 mph - N/A   Overcast
1:35 AM 42.3 °F 39.4 °F 34.9 °F 75% 29.85 in 10.0 mi West 4.6 mph - N/A   Overcast
1:55 AM 42.4 °F 39.6 °F 34.3 °F 73% 29.85 in 10.0 mi WNW 4.6 mph - N/A   Overcast
2:15 AM 42.6 °F - 33.1 °F 69% 29.84 in 10.0 mi Calm Calm - N/A   Overcast
2:35 AM 42.8 °F - 33.6 °F 70% 29.84 in 10.0 mi Calm Calm - N/A   Overcast
2:55 AM 43.5 °F 40.9 °F 34.3 °F 70% 29.85 in 10.0 mi North 4.6 mph - N/A   Overcast
3:15 AM 42.8 °F 40.1 °F 33.6 °F 70% 29.85 in 10.0 mi North 4.6 mph - N/A   Overcast
3:35 AM 42.8 °F 40.1 °F 32.9 °F 68% 29.86 in 10.0 mi NE 4.6 mph - N/A   Overcast
3:55 AM 42.8 °F 41.1 °F 32.4 °F 67% 29.87 in 10.0 mi NE 3.5 mph - N/A   Overcast
4:15 AM 41.0 °F 38.0 °F 32.7 °F 72% 29.87 in 10.0 mi NNE 4.6 mph - N/A   Overcast
4:35 AM 40.6 °F 37.5 °F 31.8 °F 71% 29.87 in 10.0 mi NNE 4.6 mph - N/A   Mostly Cloudy
4:55 AM 40.3 °F 38.2 °F 31.6 °F 71% 29.87 in 10.0 mi NNE 3.5 mph - N/A   Overcast
5:15 AM 40.1 °F 38.0 °F 32.0 °F 73% 29.88 in 10.0 mi NNE 3.5 mph - N/A   Mostly Cloudy
5:35 AM 38.1 °F - 32.2 °F 79% 29.88 in 10.0 mi Calm Calm - N/A   Scattered Clouds
5:55 AM 37.9 °F 35.5 °F 31.5 °F 77% 29.89 in 10.0 mi NNE 3.5 mph - N/A   Mostly Cloudy
6:15 AM 38.7 °F - 32.0 °F 77% 29.90 in 10.0 mi Calm Calm - N/A   Overcast
6:35 AM 38.3 °F - 32.2 °F 79% 29.90 in 10.0 mi Calm Calm - N/A   Overcast
6:55 AM 37.6 °F - 31.1 °F 77% 29.91 in 10.0 mi Calm Calm - N/A   Mostly Cloudy
7:15 AM 37.6 °F 35.1 °F 30.9 °F 77% 29.92 in 10.0 mi North 3.5 mph - N/A   Mostly Cloudy
7:35 AM 37.6 °F 35.1 °F 30.2 °F 75% 29.93 in 10.0 mi NNW 3.5 mph - N/A   Scattered Clouds
7:55 AM 35.1 °F - 30.9 °F 85% 29.93 in 10.0 mi Calm Calm - N/A   Clear
8:15 AM 32.5 °F - 30.4 °F 92% 29.94 in 10.0 mi Calm Calm - N/A   Clear
8:35 AM 33.1 °F - 31.3 °F 93% 29.94 in 10.0 mi Calm Calm - N/A   Clear
8:55 AM 35.1 °F - 32.5 °F 91% 29.95 in 10.0 mi Calm Calm - N/A   Clear
9:15 AM 35.1 °F - 33.4 °F 94% 29.96 in 10.0 mi Calm Calm - N/A   Clear
9:35 AM 40.8 °F 34.5 °F 32.7 °F 73% 29.98 in 10.0 mi North 10.4 mph 18.4 mph N/A   Clear
9:55 AM 42.1 °F 36.6 °F 33.4 °F 71% 29.98 in 10.0 mi North 9.2 mph 17.3 mph N/A   Clear
10:15 AM 43.2 °F 36.6 °F 34.0 °F 70% 30.00 in 10.0 mi North 12.7 mph 20.7 mph N/A   Clear
10:35 AM 45.1 °F 43.7 °F 35.1 °F 68% 30.00 in 10.0 mi North 3.5 mph 19.6 mph N/A   Clear
10:55 AM 46.9 °F - 36.5 °F 67% 30.00 in 10.0 mi North 11.5 mph 16.1 mph N/A   Clear
11:15 AM 47.7 °F - 36.3 °F 65% 30.01 in 10.0 mi North 9.2 mph - N/A   Scattered Clouds
11:35 AM 47.7 °F - 36.0 °F 64% 30.01 in 10.0 mi NNW 10.4 mph - N/A   Clear
11:55 AM 47.7 °F - 35.2 °F 62% 30.02 in 10.0 mi NW 20.7 mph 27.6 mph N/A   Clear
12:15 PM 47.7 °F - 34.9 °F 61% 30.02 in 10.0 mi NNW 8.1 mph 17.3 mph N/A   Clear
12:35 PM 47.7 °F - 33.8 °F 59% 30.02 in 10.0 mi NW 8.1 mph - N/A   Clear
12:55 PM 47.7 °F - 32.4 °F 55% 30.03 in 10.0 mi NW 10.4 mph 18.4 mph N/A   Clear
1:15 PM 47.7 °F - 32.5 °F 56% 30.02 in 10.0 mi North 9.2 mph - N/A   Clear
1:35 PM 48.4 °F - 32.9 °F 55% 30.02 in 10.0 mi North 12.7 mph 16.1 mph N/A   Clear
1:55 PM 48.9 °F - 33.4 °F 55% 30.02 in 10.0 mi NW 10.4 mph 18.4 mph N/A   Clear
2:15 PM 49.3 °F - 33.4 °F 54% 30.02 in 10.0 mi NW 12.7 mph 17.3 mph N/A   Clear
2:35 PM 50.2 °F - 33.6 °F 53% 30.02 in 10.0 mi NNW 15.0 mph 26.5 mph N/A   Clear
2:55 PM 50.2 °F - 33.6 °F 53% 30.02 in 10.0 mi West 6.9 mph 16.1 mph N/A   Scattered Clouds
3:15 PM 50.5 °F - 34.5 °F 54% 30.02 in 10.0 mi NW 15.0 mph 18.4 mph N/A   Scattered Clouds
3:35 PM 51.1 °F - 34.5 °F 53% 30.02 in 10.0 mi WNW 8.1 mph 18.4 mph N/A   Scattered Clouds
3:55 PM 52.2 °F - 35.2 °F 53% 30.02 in 10.0 mi NW 10.4 mph - N/A   Clear
4:15 PM 51.6 °F - 34.7 °F 52% 30.02 in 10.0 mi NW 10.4 mph 18.4 mph N/A   Clear
4:35 PM 50.2 °F - 33.8 °F 53% 30.03 in 10.0 mi NNW 9.2 mph - N/A   Clear
4:55 PM 50.2 °F - 34.2 °F 54% 30.03 in 10.0 mi North 10.4 mph - N/A   Clear
5:15 PM 49.5 °F - 34.2 °F 56% 30.03 in 10.0 mi NNW 9.2 mph - N/A   Clear
5:35 PM 47.7 °F - 33.6 °F 58% 30.04 in 10.0 mi NNW 6.9 mph - N/A   Clear
5:55 PM 47.7 °F - 34.0 °F 59% 30.04 in 10.0 mi NNW 8.1 mph - N/A   Clear
6:15 PM 47.7 °F - 35.6 °F 63% 30.05 in 10.0 mi North 5.8 mph - N/A   Clear
6:35 PM 47.5 °F - 37.0 °F 67% 30.05 in 10.0 mi North 5.8 mph - N/A   Clear
6:55 PM 45.1 °F 42.0 °F 35.8 °F 70% 30.06 in 10.0 mi NNE 5.8 mph - N/A   Clear
7:15 PM 42.8 °F 40.1 °F 34.0 °F 71% 30.07 in 10.0 mi North 4.6 mph - N/A   Clear
7:35 PM 41.5 °F 39.6 °F 33.4 °F 73% 30.08 in 10.0 mi NNE 3.5 mph - N/A   Clear
7:55 PM 41.4 °F - 33.8 °F 74% 30.08 in 10.0 mi Calm Calm - N/A   Clear
8:15 PM 40.5 °F 38.4 °F 34.2 °F 78% 30.08 in 10.0 mi North 3.5 mph - N/A   Clear
8:35 PM 37.6 °F - 34.5 °F 89% 30.08 in 10.0 mi Calm Calm - N/A   Clear
8:55 PM 37.6 °F - 35.4 °F 92% 30.08 in 10.0 mi Calm Calm - N/A   Clear
9:15 PM 35.1 °F - 33.8 °F 95% 30.08 in 10.0 mi Calm Calm - N/A   Clear
9:35 PM 32.5 °F - 32.2 °F 99% 30.09 in 10.0 mi Calm Calm - N/A   Scattered Clouds
9:55 PM 35.1 °F - 34.7 °F 99% 30.09 in 10.0 mi Calm Calm - N/A   Scattered Clouds
10:15 PM 35.1 °F - 34.3 °F 97% 30.10 in 10.0 mi Calm Calm - N/A   Mostly Cloudy
10:35 PM 35.1 °F - 33.8 °F 95% 30.10 in 10.0 mi Calm Calm - N/A   Overcast
10:55 PM 35.1 °F - 34.0 °F 96% 30.10 in 10.0 mi Calm Calm - N/A   Overcast
11:15 PM 35.1 °F 32.2 °F 33.8 °F 95% 30.10 in 10.0 mi NNE 3.5 mph - N/A   Scattered Clouds
11:35 PM 32.5 °F - 32.0 °F 98% 30.10 in 10.0 mi Calm Calm - N/A   Clear
11:55 PM 32.9 °F - 32.4 °F 98% 30.10 in 10.0 mi Calm Calm - N/A   Clear